User: anonymous   Login
Location: Unspecified
(0.0000°N, 0.0000°E)
Time: 00:58:56
(UTC+00:00)
Language:

STARLINK-35861 - Orbit

View from above orbital plane
View from above orbital plane
View from above satellite
View from above satellite

Ground track
Ground track

The orbit is defined by the following mean orbital elements,

1 66355U          26145.50723722 +.00000000 +00000-0 +68272-3 0 00002
2 66355  53.1600 235.8651 0001725 100.3280 259.7915 15.30215311    01
Epoch (UTC): 25 May 2026 12:10:25
Eccentricity: 0.0001725
inclination: 53.1600°
perigee height: 474 km
apogee height: 476 km
right ascension of ascending node: 235.8651°
argument of perigee: 100.3280°
revolutions per day: 15.30215311
mean anomaly at epoch: 259.7915°

The dashed part of the orbit path shows where the satellite is in the earth's shadow,  

DLR